Vertical_Velocity
4 3 -4 -3 -3 1 7 8 7 3 3 5 -1 -6 1 4 4 4 3 1 -0 7 1 -3 0 1 -0 4 4 1 -0 0 3 2 -0 -2 2 0 -2 3 0 0 -0
2 -6 -8 1 5 2 -5 -1 2 -0 -0 -0 4 3 -6 -5 0 2 2 4 -3 2 6 5 1 7 2 3 -0 2 2 1 -1 -0 1 -8 -1 2 4 2 2 2 1
-2 -4 -4 0 -3 2 4 -1 0 1 1 1 0 2 2 -8 -1 2 2 5 12 -0 1 4 -1 11 1 3 8 4 7 3 6 1 7 -6 -3 3 1 2 1 1 0
-2 -1 -1 0 2 1 -0 -0 1 1 -1 -2 -1 2 3 0 -7 -2 3 4 3 5 12 5 -0 0 0 2 3 4 6 10 6 8 -0 7 2 -4 -6 2 3 2 -2
-1 0 0 -2 -1 -1 -1 -0 0 -0 -1 0 -1 -1 -1 1 4 -1 -3 -0 -3 -3 3 6 9 -3 -1 -0 5 5 2 2 -1 8 6 11 4 -1 -1 -2 2 3 3
-0 0 -0 -2 -1 0 -1 -1 -1 -1 -2 -1 -0 0 -0 1 1 3 1 0 -2 -0 -2 -2 0 4 5 3 3 4 5 2 5 -4 4 9 9 12 1 -5 3 4 2
-1 -0 0 -0 0 -1 -1 -1 -3 -2 -3 -2 -1 -2 1 1 0 -0 0 -0 -1 -2 1 -2 2 -0 2 1 3 1 2 7 5 9 -6 -1 5 6 14 6 -3 -4 3
1 -1 -0 -0 -2 -2 -2 -2 -2 -0 -1 -1 1 -0 -2 -3 -1 1 -1 1 0 3 3 1 -1 0 0 1 0 1 4 7 3 0 7 9 4 8 8 10 13 2 3
-1 0 -1 -1 -2 -2 -1 -1 -2 -2 -0 -1 -1 -0 -1 -0 0 0 -1 0 3 1 3 2 -3 -2 -2 -1 2 4 5 1 4 7 13 7 12 3 -1 8 11 3 2
-2 0 -2 -1 -1 -1 -0 -1 -1 -1 -0 -0 -0 -1 -2 -2 -2 -2 1 1 1 -3 0 5 2 -3 3 1 0 2 3 6 1 -2 3 2 2 8 5 1 4 6 3
-3 -3 -2 -1 -0 -2 -1 -3 -2 0 1 -1 -1 -1 -0 -0 -1 -2 -1 -1 -2 -1 -0 -0 1 2 -1 1 1 1 3 1 2 5 1 -3 -1 0 3 3 8 4 4
0 -1 -1 -2 -2 -2 -1 -0 -1 1 -1 1 2 -1 -3 0 -3 -1 -1 -4 1 -2 -0 0 -1 -1 -2 2 -2 -0 5 4 4 5 -0 -0 4 -3 -1 2 0 1 9
-0 -1 -2 -1 -2 -1 -2 0 1 0 1 0 1 -2 0 -2 -2 0 -2 1 -1 0 -1 -1 0 -2 -3 -6 -4 -4 -0 -3 1 3 2 5 -0 -4 -1 2 2 0 1
-1 -1 -2 -2 0 -1 -0 3 -0 2 -0 -1 -1 -2 -2 -1 -1 -0 1 -1 1 -2 -4 -2 -3 -3 1 -1 -4 -1 -2 1 -0 -2 0 -2 2 -4 -3 0 1 -0 -4
0 -2 1 1 1 1 0 0 1 -2 -2 -3 -1 -0 -0 -1 0 -0 -1 -0 -2 -3 -1 -2 -3 0 -0 0 2 -4 3 2 1 -6 -9 15 0 0 -1 -4 -1 7 2
0 0 1 -0 -1 -2 -0 -0 -1 -1 -2 -1 -1 -1 -1 -2 0 -3 -2 -1 -2 -2 -1 0 -0 -1 -3 -3 -3 -2 -3 -1 -9 22 -8 -1 11 1 4 5 -1 1 -0
2 -2 -2 2 -4 -2 0 -1 -0 -1 -1 -1 -2 -0 -1 -1 -1 -3 -0 0 -3 -2 -1 -3 -2 -3 -5 -6 -5 -3 -1 -2 -2 2 4 6 4 4 3 1 2 5 5
-1 2 -2 -1 -1 -1 -2 -1 -3 3 -5 -3 1 2 -0 -0 1 -3 0 -0 -2 -1 -0 -2 -3 -1 -4 -2 -2 -3 -2 -1 -2 -4 1 2 -2 1 1 1 -2 -1 -1
-0 -4 -3 -2 -2 -3 2 -3 1 -2 -1 1 3 0 -0 0 -3 -3 1 -1 -3 -3 -2 -1 -3 -3 -4 -3 -1 -0 -1 -2 -1 -1 -1 0 -1 -0 -3 -1 1 -1 -0
1 -0 -4 -5 -1 3 -1 -2 1 0 1 2 1 -0 -1 -2 -3 -0 -1 -1 -2 -2 -0 -2 -3 -3 -3 -4 -4 -3 -1 -1 -0 0 -1 -0 1 1 0 -2 -1 -1 -0
-4 -6 -2 5 4 -3 -5 -1 1 1 -0 -1 -0 -1 -1 -1 -3 0 -0 -1 -1 -0 -1 -2 -2 -1 -2 -1 -0 0 -0 -1 -3 -3 -1 -2 -1 -1 -0 -0 -1 -1 -0
-0 -1 0 2 -1 -3 -1 -1 1 -0 -0 -1 -2 -1 -2 -1 -1 1 -1 -1 -0 -1 -1 -0 -0 -0 -0 -1 -2 -3 -3 -1 -0 -0 0 1 -1 -0 -0 -0 -1 -1 -1
-1 -1 1 1 -1 0 -0 0 0 -1 -1 -1 -1 -1 -1 -1 -1 2 -0 -0 0 -0 -1 -1 -2 -1 -0 -2 -3 -1 -2 -1 -0 0 0 -0 -0 -0 -0 -1 -0 -1 -1
2 1 -1 -0 0 -0 1 1 -0 -2 -2 -1 -1 -1 0 0 1 1 0 0 -0 -1 -1 -2 -2 -0 0 -1 -2 -3 -1 -0 -1 -0 -1 1 -0 -0 -0 -1 -1 -1 -1
2 -2 -1 0 -1 -0 0 -1 -1 -1 -1 -1 -1 -1 1 1 0 -0 0 0 -1 -1 -2 -1 -0 0 0 -1 -1 -1 -1 -1 -0 0 -1 -1 -2 -1 -1 -1 -1 -1 -1
0 -1 -2 0 -0 -3 0 -2 -1 0 -0 -1 -1 1 0 0 0 0 0 -1 -0 -1 -1 0 1 0 -3 -3 -2 -1 -2 -2 -2 -3 -1 -1 -1 -1 -1 -1 -1 -0 -0
Height
3121 3121 3120 3124 3126 3130 3132 3134 3136 3138 3139 3141 3140 3140 3144 3147 3148 3149 3149 3149 3148 3149 3148 3148 3150 3149 3149 3150 3150 3151 3150 3150 3150 3148 3149 3147 3149 3148 3150 3149 3150 3151 3149
3115 3113 3114 3118 3122 3123 3124 3127 3129 3130 3132 3133 3136 3135 3134 3136 3140 3142 3143 3143 3141 3141 3140 3141 3141 3142 3141 3142 3140 3143 3143 3142 3143 3141 3141 3139 3140 3142 3142 3143 3143 3143 3144
3107 3107 3109 3112 3114 3116 3118 3120 3122 3123 3125 3127 3127 3129 3127 3126 3128 3131 3133 3135 3135 3132 3132 3131 3132 3134 3134 3133 3134 3132 3134 3133 3133 3133 3134 3131 3130 3133 3134 3135 3135 3135 3136
3100 3102 3104 3106 3108 3110 3111 3112 3114 3115 3117 3118 3119 3120 3120 3118 3119 3119 3122 3123 3124 3125 3125 3123 3123 3123 3125 3125 3125 3125 3124 3124 3123 3124 3125 3125 3122 3122 3124 3127 3127 3127 3127
3095 3097 3099 3101 3103 3104 3105 3106 3108 3109 3110 3111 3112 3112 3111 3111 3111 3111 3111 3112 3112 3113 3115 3116 3115 3114 3114 3115 3115 3116 3114 3113 3113 3114 3116 3117 3115 3113 3114 3116 3118 3117 3118
3091 3093 3095 3096 3098 3100 3101 3102 3102 3103 3104 3104 3104 3104 3104 3104 3103 3103 3103 3104 3104 3104 3103 3104 3105 3106 3105 3104 3105 3105 3105 3103 3102 3101 3103 3106 3107 3106 3104 3106 3107 3105 3104
3088 3090 3091 3093 3094 3095 3096 3097 3097 3097 3097 3097 3097 3096 3096 3096 3096 3096 3095 3095 3095 3096 3096 3094 3093 3094 3094 3094 3094 3093 3093 3093 3091 3091 3091 3094 3095 3096 3096 3095 3096 3095 3096
3085 3087 3088 3089 3090 3090 3091 3091 3091 3090 3090 3090 3089 3088 3087 3086 3087 3087 3087 3087 3086 3086 3086 3086 3085 3085 3083 3084 3083 3082 3082 3082 3082 3081 3081 3080 3082 3084 3086 3086 3087 3086 3084
3083 3085 3085 3086 3086 3086 3085 3084 3083 3082 3082 3081 3080 3079 3078 3078 3078 3078 3077 3077 3077 3078 3077 3077 3074 3073 3074 3075 3074 3073 3072 3071 3072 3072 3071 3071 3070 3071 3074 3075 3075 3076 3073
3081 3081 3081 3081 3080 3079 3078 3077 3077 3076 3075 3074 3072 3071 3070 3069 3068 3068 3068 3068 3068 3068 3067 3067 3067 3064 3063 3064 3064 3063 3063 3062 3060 3060 3060 3061 3061 3061 3062 3063 3064 3064 3064
3077 3077 3076 3075 3073 3072 3071 3070 3069 3069 3068 3067 3066 3065 3064 3063 3062 3061 3061 3061 3060 3059 3058 3057 3057 3056 3055 3054 3053 3053 3053 3052 3052 3051 3051 3051 3051 3052 3052 3053 3054 3054 3053
3073 3072 3070 3068 3066 3065 3064 3063 3062 3062 3061 3061 3060 3060 3060 3057 3056 3055 3054 3054 3052 3051 3049 3048 3047 3046 3045 3043 3043 3042 3041 3041 3042 3041 3042 3042 3042 3042 3043 3044 3044 3044 3044
3067 3066 3064 3062 3060 3059 3058 3057 3057 3057 3057 3057 3056 3055 3053 3052 3051 3050 3048 3047 3045 3044 3042 3040 3039 3039 3038 3036 3033 3031 3029 3027 3028 3030 3030 3031 3033 3033 3033 3034 3035 3035 3035
3063 3062 3060 3057 3055 3053 3053 3052 3053 3053 3053 3053 3051 3049 3048 3046 3045 3042 3041 3040 3039 3037 3036 3033 3032 3032 3030 3029 3027 3024 3021 3017 3017 3019 3019 3020 3023 3025 3025 3026 3027 3027 3026
3059 3057 3055 3053 3051 3049 3049 3049 3050 3049 3048 3048 3046 3044 3043 3041 3040 3038 3035 3034 3033 3031 3029 3027 3026 3024 3023 3021 3019 3018 3015 3013 3013 3013 3011 3009 3013 3016 3018 3019 3019 3019 3019
3056 3054 3052 3050 3047 3046 3045 3045 3045 3045 3044 3043 3041 3039 3038 3037 3035 3033 3030 3030 3029 3026 3022 3021 3020 3019 3017 3015 3013 3011 3010 3008 3008 3006 3009 3007 3003 3006 3009 3010 3011 3011 3010
3053 3051 3049 3047 3044 3042 3041 3041 3041 3041 3039 3038 3037 3035 3034 3033 3032 3030 3028 3027 3025 3020 3018 3018 3018 3016 3014 3011 3011 3009 3007 3006 3005 3004 3003 3002 3001 3001 3002 3003 3003 3002 3001
3051 3049 3046 3043 3041 3038 3037 3038 3037 3036 3036 3033 3032 3031 3030 3031 3030 3028 3026 3023 3021 3018 3016 3016 3016 3014 3012 3010 3009 3008 3007 3005 3004 3003 3001 3001 3001 3000 2999 2998 2997 2996 2995
3047 3045 3043 3041 3038 3036 3035 3035 3034 3032 3030 3028 3029 3028 3029 3030 3028 3026 3025 3022 3020 3018 3017 3016 3016 3015 3013 3012 3010 3009 3008 3007 3005 3003 3002 3001 2999 2997 2995 2994 2993 2991 2988
3044 3043 3041 3039 3035 3034 3033 3032 3030 3028 3027 3027 3027 3026 3027 3028 3027 3026 3024 3023 3021 3020 3019 3018 3017 3016 3015 3014 3012 3010 3009 3007 3005 3002 3000 2997 2995 2992 2990 2987 2985 2982 2979
3042 3040 3040 3039 3035 3033 3033 3032 3030 3029 3028 3028 3027 3026 3027 3027 3027 3026 3025 3024 3022 3021 3020 3020 3018 3017 3016 3015 3012 3010 3007 3004 3001 2997 2994 2990 2987 2984 2981 2979 2976 2974 2972
3040 3039 3038 3035 3032 3032 3033 3033 3032 3031 3029 3028 3027 3028 3027 3027 3027 3026 3025 3024 3023 3022 3021 3020 3019 3018 3016 3013 3010 3007 3004 3000 2997 2993 2989 2985 2981 2978 2975 2972 2970 2968 2967
3037 3036 3035 3032 3031 3031 3031 3031 3031 3030 3028 3028 3027 3027 3027 3026 3026 3026 3025 3024 3023 3022 3021 3020 3018 3016 3014 3012 3009 3006 3002 2998 2993 2988 2984 2979 2976 2972 2970 2967 2966 2964 2963
3033 3033 3033 3030 3029 3029 3029 3029 3029 3028 3027 3027 3027 3026 3026 3026 3025 3025 3024 3023 3022 3021 3019 3018 3016 3014 3012 3009 3006 3002 2998 2993 2989 2984 2979 2975 2971 2968 2965 2963 2961 2960 2958
3030 3029 3030 3028 3027 3026 3026 3026 3025 3025 3025 3025 3025 3025 3025 3025 3024 3023 3022 3021 3020 3019 3017 3015 3013 3011 3008 3005 3001 2998 2993 2989 2985 2980 2975 2971 2967 2964 2961 2959 2957 2956 2954
3026 3025 3025 3025 3024 3023 3023 3023 3023 3023 3023 3023 3023 3023 3024 3023 3022 3021 3020 3019 3018 3016 3014 3012 3010 3008 3004 3001 2998 2994 2990 2985 2980 2975 2971 2966 2963 2959 2957 2955 2953 2951 2949